Tlemcen, Algeria

5:03 AM CET on July 28, 2017 (GMT +0100)
Tlemcen

Weather History for DAON - May, 2013

Change the Weather History Date:

Thursday, May 9, 2013

  Actual Average (GMFO) Record (GMFO)
Temperature  
Mean Temperature 71 °F -  
Max Temperature 87 °F 74 °F 96 °F (2005)
Min Temperature 55 °F 50 °F 41 °F (2004)
Cooling Degree Days 6    
Growing Degree Days 21 (Base 50)    
Moisture  
Dew Point 47 °F    
Average Humidity 43    
Maximum Humidity 77    
Minimum Humidity 11    
Precipitation  
Precipitation 0.00 in - - ()
Sea Level Pressure  
Sea Level Pressure 30.03 in    
Wind  
Wind Speed 3 mph ()    
Max Wind Speed 12 mph    
Max Gust Speed -    
Visibility 12.0 miles    
Events      
Averages and records for this station are not official NWS values.
T = Trace of Precipitation, MM = Missing Value Source: Averaged Metar Reports

Daily Weather History Graph

Daily Weather History Graph

Search for Another Location

Airport or City:

Trip Planner

Search our weather history database for the weather conditions in past years. The results will help you decide how hot, cold, wet, or windy it might be!

Date:

Astronomy

May. 09, 2013 Rise Set
Actual Time 6:07 AM CET 7:57 PM CET
Civil Twilight 5:39 AM CET 8:25 PM CET
Nautical Twilight 5:06 AM CET 8:59 PM CET
Astronomical Twilight 4:30 AM CET 9:34 PM CET
Moon 5:40 AM CET (5/9) 7:39 PM CET (5/9)
Length of Visible Light 14h 46m
Length of Day
13h 50m
Waning Crescent, 0% of the Moon is Illuminated
May 9
Waning Crescent
May 10
New
May 18
First Quarter
May 25
Full
May 31
Last Quarter

Hourly Weather History & Observations

Time (CET) Temp. Dew Point Humidity Pressure Visibility Wind Dir Wind Speed Gust Speed Precip Events Conditions
12:00 AM 66.2 °F 51.8 °F 60% 30.04 in - Calm Calm - N/A   Clear
12:30 AM 64.4 °F 51.8 °F 64% 30.04 in - Calm Calm - N/A   Clear
1:00 AM 64 °F 53 °F 59% 30.03 in 12 mi ESE 4.6 mph - -   Scattered Clouds
1:00 AM 64.4 °F 53.6 °F 68% 30.04 in - ESE 4.6 mph - N/A   Clear
1:30 AM 64.4 °F 53.6 °F 68% 30.04 in - ESE 4.6 mph - N/A   Clear
2:00 AM 60.8 °F 53.6 °F 77% 30.04 in - ESE 4.6 mph - N/A   Clear
2:30 AM 60.8 °F 53.6 °F 77% 30.04 in - ESE 4.6 mph - N/A   Clear
3:00 AM 60.8 °F 53.6 °F 77% 30.01 in - ESE 4.6 mph - N/A   Clear
3:30 AM 60.8 °F 53.6 °F 77% 30.01 in - ESE 4.6 mph - N/A   Clear
4:00 AM 63 °F 47 °F 45% 29.98 in 12 mi Calm Calm - -   Scattered Clouds
4:00 AM 62.6 °F 46.4 °F 55% 30.01 in - Calm Calm - N/A   Clear
4:30 AM 62.6 °F 46.4 °F 55% 30.01 in - Calm Calm - N/A   Clear
5:00 AM 59.0 °F 46.4 °F 63% 30.01 in - Calm Calm - N/A   Clear
5:30 AM 59.0 °F 46.4 °F 63% 30.01 in - Calm Calm - N/A   Clear
6:00 AM 55.4 °F 46.4 °F 72% 30.01 in - Calm Calm - N/A   Clear
6:30 AM 57.2 °F 46.4 °F 67% 30.01 in - Calm Calm - N/A   Clear
7:00 AM 60 °F 50 °F 60% 30.01 in 12 mi Calm Calm - -   Scattered Clouds
7:00 AM 60.8 °F 50.0 °F 68% 30.04 in - Calm Calm - N/A   Clear
7:30 AM 64.4 °F 50.0 °F 59% 30.04 in - Calm Calm - N/A   Clear
8:00 AM 69.8 °F 51.8 °F 53% 30.04 in - Calm Calm - N/A   Clear
8:30 AM 73.4 °F 55.4 °F 53% 30.04 in - Calm Calm - N/A   Clear
9:00 AM 77.0 °F 46.4 °F 34% 30.04 in - Calm Calm - N/A   Clear
9:30 AM 78.8 °F 46.4 °F 32% 30.04 in - Calm Calm - N/A   Clear
10:00 AM 80 °F 50 °F 24% 30.03 in 12 mi WNW 3.5 mph - -   Scattered Clouds
10:00 AM 80.6 °F 50.0 °F 34% 30.04 in - WNW 3.5 mph - N/A   Clear
10:30 AM 80.6 °F 50.0 °F 34% 30.04 in - WNW 5.8 mph - N/A   Clear
11:00 AM 82.4 °F 46.4 °F 28% 30.04 in - North 5.8 mph - N/A   Clear
11:30 AM 82.4 °F 46.4 °F 28% 30.04 in - North 5.8 mph - N/A   Clear
12:00 PM 84.2 °F 51.8 °F 33% 30.04 in - North 5.8 mph - N/A   Clear
12:30 PM 86.0 °F 46.4 °F 25% 30.04 in - North 8.1 mph - N/A   Clear
1:00 PM 86 °F 46 °F 15% 29.99 in 12 mi North 9.2 mph - -   Clear
1:00 PM 86.0 °F 46.4 °F 25% 30.04 in - North 9.2 mph - N/A   Clear
1:30 PM 86.0 °F 46.4 °F 25% 30.04 in - North 10.4 mph - N/A   Clear
2:00 PM 86.0 °F 46.4 °F 25% 30.04 in - North 11.5 mph - N/A   Clear
2:30 PM 86.0 °F 41.0 °F 20% 30.04 in - North 11.5 mph - N/A   Clear
3:00 PM 84.2 °F 39.2 °F 20% 30.04 in - North 10.4 mph - N/A   Clear
3:30 PM 84.2 °F 39.2 °F 20% 30.04 in - NNE 11.5 mph - N/A   Clear
4:00 PM 86 °F 39 °F 11% 29.99 in 12 mi North 5.8 mph - -   Clear
4:00 PM 86.0 °F 39.2 °F 19% 30.04 in - North 5.8 mph - N/A   Clear
4:30 PM 86.0 °F 39.2 °F 19% 30.01 in - North 8.1 mph - N/A   Clear
5:00 PM 86.0 °F 39.2 °F 19% 30.01 in - North 8.1 mph - N/A   Clear
5:30 PM 86.0 °F 39.2 °F 19% 30.01 in - NNE 6.9 mph - N/A   Clear
6:00 PM 86.0 °F 41.0 °F 20% 30.01 in - NNE 6.9 mph - N/A   Clear
7:00 PM 80 °F 42 °F 16% 30.00 in 12 mi North 6.9 mph - -   Clear
7:00 PM 80.6 °F 42.8 °F 26% 30.01 in - North 6.9 mph - N/A   Clear
7:30 PM 78.8 °F 42.8 °F 28% 30.04 in - Calm Calm - N/A   Clear
8:00 PM 77.0 °F 48.2 °F 36% 30.04 in - Calm Calm - N/A   Clear
8:30 PM 71.6 °F 44.6 °F 38% 30.04 in - Calm Calm - N/A   Clear
9:00 PM 69.8 °F 50.0 °F 49% 30.04 in - Calm Calm - N/A   Clear
9:30 PM 64.4 °F 50.0 °F 59% 30.06 in - Calm Calm - N/A   Clear
10:00 PM 65 °F 47 °F 41% 30.04 in 12 mi Calm Calm - -   Clear
10:00 PM 64.4 °F 46.4 °F 52% 30.06 in - Calm Calm - N/A   Clear
10:30 PM 62.6 °F 46.4 °F 55% 30.06 in - Calm Calm - N/A   Clear
11:00 PM 60.8 °F 46.4 °F 59% 30.06 in - Calm Calm - N/A   Clear
11:30 PM 59.0 °F 46.4 °F 63% 30.06 in - Calm Calm - N/A   Clear